Flag for U.S.A. Weather past 2 weeks in Panama City, Florida, U.S.A.

Now
75 °F

Clear.


Feels Like: 73 °F
Forecast: 77 / 89 °F
Wind: No wind

Location: Tyndall Air Force Base

Current Time: Sep 4, 2015 at 2:50:51 AM

Latest Report: Sep 4, 2015 at 1:58 AM


Visibility: 10 mi

Pressure: 29.95 "Hg

Humidity: 96%

Dew point: 74 °F

Location of Panama CityLocation

Historic Weather in Panama City — Graph

°F

Panama City temperature yesterday

Maximum temperature yesterday: 87 °F (at 10:58 AM)
Minimum temperature yesterday: 76 °F (at 11:58 PM)
Average temperature yesterday: 82 °F

Past Weeks' High & Low Weather Summary

 TemperatureHumidityPressure
High94 °F (Aug 31, 2:58 PM)100% (Aug 21, 4:03 AM)30.12 "Hg (Aug 21, 4:03 AM)
Low69 °F (Aug 27, 6:58 AM)39% (Aug 27, 11:58 AM)29.87 "Hg (Aug 25, 5:58 PM)
Average81 °F76%29.99 "Hg
* Reported Aug 20 1:58 AM — Sep 4 1:58 AM, Panama City, Weather by CustomWeather, © 2015

Note: Actual official high and low records may vary slightly from our data, if they occured in-between our weather recording intervals... More about our weather records

Advertising

Panama City weather history for previous 24 hours

 ConditionsComfort  
Time TempWeatherWind HumidityBarometerVisibility
1:58 AM
Fri, Sep 4
75 °FClear.No wind96%29.95 "Hg10 mi
12:58 AM76 °FClear.No wind94%29.95 "Hg10 mi
11:58 PM
Thu, Sep 3
76 °FClear.No wind94%29.96 "Hg10 mi
10:58 PM78 °FClear.No wind90%29.96 "Hg10 mi
9:58 PM80 °FClear.3 mph87%29.95 "Hg10 mi
8:58 PM79 °FClear.3 mph87%29.95 "Hg10 mi
7:58 PM80 °FClear.5 mph81%29.92 "Hg10 mi
6:58 PM82 °FSunny.9 mph77%29.94 "Hg10 mi
5:58 PM85 °FPassing clouds.14 mph73%29.94 "Hg10 mi
4:58 PM85 °FPassing clouds.10 mph77%29.95 "Hg10 mi
3:58 PM84 °FPartly sunny.9 mph79%29.95 "Hg10 mi
2:58 PM85 °FPartly sunny.12 mph78%29.96 "Hg10 mi
1:58 PM85 °FBroken clouds.12 mph77%29.98 "Hg10 mi
12:58 PM85 °FBroken clouds.12 mph72%30.00 "Hg10 mi
11:58 AM86 °FBroken clouds.10 mph65%30.01 "Hg10 mi
10:58 AM87 °FPartly sunny.10 mph63%30.01 "Hg10 mi
9:58 AM85 °FPartly sunny.6 mph77%30.00 "Hg10 mi
8:58 AM84 °FPassing clouds.8 mph81%30.00 "Hg10 mi
7:58 AM83 °FSunny.5 mph87%30.00 "Hg10 mi
6:58 AM79 °FSunny.3 mph92%29.99 "Hg10 mi
5:58 AM78 °FClear.3 mph91%29.98 "Hg10 mi
4:58 AM80 °FClear.3 mph88%29.97 "Hg10 mi
3:58 AM81 °FPassing clouds.7 mph85%29.97 "Hg10 mi
2:58 AM82 °FClear.7 mph83%29.97 "Hg10 mi
Weather by CustomWeather, © 2015

See weather overviewHow to use our weather pages